Location: Fazenda Monte Alegre
(4.8500°S, 38.0333°W)
Time: 14:40:36
(UTC+00:00)

Cosmos 1707 - Pass Details

Date: 24 September 2020
Orbit: 515 x 531 km, 82.5° (Epoch: 19 October)

Event Time Altitude Azimuth Distance (km) Brightness Sun altitude
Rises 21:23:14 0° 9° (N) 2,615 6.2 -14.7°
Reaches altitude 10° 21:25:26 10° 16° (NNE) 1,735 5.2 -15.3°
Maximum altitude 21:29:01 40° 87° (E) 765 3.0 -16.1°
Drops below altitude 10° 21:32:39 10° 157° (SSE) 1,754 5.2 -17.1°
Sets 21:34:52 0° 165° (SSE) 2,648 6.2 -17.6°
